Location: Unspecified
(0.0000°N, 0.0000°E)
Time: 21:29:33

Hubble Space Telescope - Pass Details

Date: 13 January 2018
Orbit: 537 x 541 km, 28.5° (Epoch: 21 March)

Event Time Altitude Azimuth Distance (km) Brightness Sun altitude
Rises 20:45:15 0° 253° (WSW) 2,674 5.3 -36.0°
Reaches altitude 10° 20:47:37 10° 261° (W) 1,782 4.1 -36.5°
Enters shadow 20:47:43 11° 261° (W) 1,748 4.0 -36.5°
